Terminal Aerodrome Forecast
Issued by NWS

Home | Current Version | Previous Version | Text Only | Print | Product List | Glossary On
Versions: 1 2 3 4 5 6 7 8 9 10 11 12 13 14 15 16 17 18 19 20 21 22 23 24 25 26 27 28 29 30 31 32 33 34 35 36 37 38 39 40 41 42 43
000
FTUS46 KPQR 272353
TAFONP
TAF
KONP 272353Z 2800/2824 33009KT P6SM OVC006
     FM280200 34010KT 5SM BR OVC004
     FM280600 00000KT 3/4SM BR OVC001
     FM281700 31004KT 5SM BR OVC004
     FM282000 32009KT P6SM OVC007=

USA.gov is the U.S. government's official web portal to all federal, state and local government web resources and services.